Location: Asheville, NC
(35.6000°N, 82.5500°W)
Time: 02:19:07

KAITUO 1B - Pass Details

Date: 10 March 2018
Orbit: 500 x 520 km, 97.5° (Epoch: 16 March)

Event Time Altitude Azimuth Distance (km) Brightness Sun altitude
Rises 05:56:57 0° 30° (NNE) 2,636 ? -11.2°
Reaches altitude 10° 05:59:32 10° 48° (NE) 1,747 ? -10.7°
Maximum altitude 06:02:16 19° 95° (E) 1,278 ? -10.1°
Drops below altitude 10° 06:04:59 10° 142° (SE) 1,742 ? -9.6°
Sets 06:07:32 0° 160° (SSE) 2,626 ? -9.0°
